2020-05-04 00:07:21 r, 18.03m,0000000006Hz,0000085246c,0000000.185s, 019.9C,00002195
2020-05-04 00:17:21 r, 17.99m,0000000006Hz,0000082208c,0000000.178s, 019.9C,00002195
2020-05-04 00:27:21 r, 18.05m,0000000005Hz,0000086331c,0000000.187s, 019.6C,00002195
2020-05-04 00:37:21 r, 18.06m,0000000006Hz,0000087511c,0000000.190s, 019.6C,00002195
2020-05-04 00:47:21 r, 18.10m,0000000005Hz,0000090215c,0000000.196s, 019.6C,00002195
2020-05-04 00:57:21 r, 18.11m,0000000005Hz,0000091018c,0000000.198s, 019.3C,00002195
2020-05-04 01:07:21 r, 18.01m,0000000005Hz,0000083383c,0000000.181s, 019.3C,00002195
2020-05-04 01:17:21 r, 17.94m,0000000006Hz,0000078570c,0000000.171s, 019.0C,00002195
2020-05-04 01:27:21 r, 18.11m,0000000005Hz,0000091242c,0000000.198s, 019.0C,00002195
2020-05-04 01:37:21 r, 18.01m,0000000006Hz,0000083469c,0000000.181s, 018.6C,00002195
2020-05-04 01:47:21 r, 18.05m,0000000005Hz,0000086481c,0000000.188s, 018.6C,00002195
2020-05-04 01:57:21 r, 18.16m,0000000005Hz,0000095922c,0000000.208s, 018.6C,00002195
2020-05-04 02:07:21 r, 18.16m,0000000005Hz,0000095683c,0000000.208s, 018.6C,00002195
2020-05-04 02:17:21 r, 18.25m,0000000004Hz,0000103530c,0000000.225s, 018.3C,00002195
2020-05-04 02:27:21 r, 18.27m,0000000005Hz,0000105472c,0000000.229s, 018.3C,00002195
2020-05-04 02:37:21 r, 18.28m,0000000004Hz,0000106555c,0000000.231s, 018.0C,00002195
2020-05-04 02:47:21 r, 18.29m,0000000005Hz,0000107527c,0000000.233s, 018.0C,00002195
2020-05-04 02:57:21 r, 18.30m,0000000004Hz,0000109439c,0000000.237s, 018.0C,00002195
2020-05-04 03:07:21 r, 18.32m,0000000004Hz,0000111227c,0000000.241s, 018.0C,00002195
2020-05-04 03:17:21 r, 18.34m,0000000004Hz,0000112247c,0000000.244s, 017.7C,00002195
2020-05-04 03:27:21 r, 18.33m,0000000004Hz,0000112049c,0000000.243s, 017.7C,00002195
2020-05-04 03:37:21 r, 18.32m,0000000004Hz,0000110737c,0000000.240s, 017.7C,00002195
2020-05-04 03:47:21 r, 18.35m,0000000004Hz,0000113307c,0000000.246s, 017.7C,00002195
2020-05-04 03:57:21 r, 18.36m,0000000004Hz,0000113969c,0000000.247s, 017.4C,00002195
2020-05-04 04:07:22 r, 18.27m,0000000005Hz,0000105549c,0000000.229s, 017.4C,00002195
2020-05-04 04:17:22 r, 18.19m,0000000004Hz,0000097893c,0000000.212s, 017.4C,00002195
2020-05-04 04:27:22 r, 18.07m,0000000005Hz,0000088237c,0000000.191s, 017.4C,00002195
2020-05-04 04:37:21 r, 17.96m,0000000006Hz,0000079699c,0000000.173s, 017.4C,00002195
2020-05-04 04:47:22 r, 17.57m,0000000008Hz,0000055712c,0000000.121s, 017.4C,00002195
2020-05-04 04:57:22 r, 16.87m,0000000016Hz,0000029277c,0000000.064s, 017.4C,00002195
2020-05-04 05:07:21 r, 15.65m,0000000048Hz,0000009511c,0000000.021s, 017.4C,00002195
2020-05-04 05:17:22 r, 14.17m,0000000190Hz,0000000000c,0000000.000s, 017.4C,00002195
2020-05-04 05:27:21 r, 12.48m,0000000908Hz,0000000000c,0000000.000s, 017.4C,00002195
2020-05-04 05:37:22 r, 10.77m,0000004393Hz,0000000000c,0000000.000s, 017.0C,00002195
2020-05-04 05:47:22 r, 09.23m,0000018056Hz,0000000000c,0000000.000s, 017.0C,00002195
2020-05-04 05:57:21 r, 08.05m,0000053803Hz,0000000000c,0000000.000s, 017.4C,00002195
2020-05-04 06:07:22 r, 07.11m,0000127120Hz,0000000000c,0000000.000s, 017.0C,00002195
2020-05-04 06:17:21 r, 06.40m,0000244630Hz,0000000000c,0000000.000s, 017.0C,00002195
2020-05-04 06:27:22 r, 00.00m,0000497509Hz,0000000000c,0000000.000s, 017.4C,00002195
2020-05-04 06:37:22 r, 00.00m,0000563012Hz,0000000000c,0000000.000s, 017.7C,00002195
2020-05-04 06:47:22 r, 00.00m,0000563060Hz,0000000000c,0000000.000s, 018.0C,00002195
2020-05-04 06:57:22 r, 00.00m,0000563097Hz,0000000000c,0000000.000s, 018.3C,00002195
2020-05-04 07:07:22 r, 00.00m,0000563034Hz,0000000000c,0000000.000s, 018.3C,00002195
2020-05-04 07:17:22 r, 00.00m,0000563157Hz,0000000000c,0000000.000s, 018.6C,00002195
2020-05-04 07:27:22 r, 00.00m,0000563223Hz,0000000000c,0000000.000s, 019.3C,00002195
2020-05-04 07:37:22 r, 00.00m,0000563275Hz,0000000000c,0000000.000s, 019.6C,00002195
2020-05-04 07:47:22 r, 00.00m,0000563363Hz,0000000000c,0000000.000s, 020.3C,00002195
2020-05-04 07:57:22 r, 00.00m,0000563479Hz,0000000000c,0000000.000s, 020.9C,00002195
2020-05-04 08:07:22 r, 00.00m,0000563440Hz,0000000000c,0000000.000s, 021.2C,00002195
2020-05-04 08:17:22 r, 00.00m,0000563410Hz,0000000000c,0000000.000s, 021.5C,00002195
2020-05-04 08:27:22 r, 00.00m,0000563556Hz,0000000000c,0000000.000s, 021.9C,00002195
2020-05-04 08:37:22 r, 00.00m,0000563646Hz,0000000000c,0000000.000s, 022.2C,00002195
2020-05-04 08:47:22 r, 00.00m,0000563733Hz,0000000000c,0000000.000s, 022.8C,00002195
2020-05-04 08:57:22 r, 00.00m,0000563844Hz,0000000000c,0000000.000s, 023.5C,00002195
2020-05-04 09:07:22 r, 00.00m,0000563790Hz,0000000000c,0000000.000s, 024.1C,00002195
2020-05-04 09:17:22 r, 00.00m,0000563705Hz,0000000000c,0000000.000s, 023.8C,00002195
2020-05-04 09:27:22 r, 00.00m,0000563788Hz,0000000000c,0000000.000s, 023.8C,00002195
2020-05-04 09:37:22 r, 00.00m,0000563919Hz,0000000000c,0000000.000s, 024.4C,00002195
2020-05-04 09:47:22 r, 00.00m,0000563983Hz,0000000000c,0000000.000s, 025.1C,00002195
2020-05-04 09:57:22 r, 00.00m,0000563977Hz,0000000000c,0000000.000s, 025.4C,00002195
2020-05-04 10:07:22 r, 00.00m,0000564237Hz,0000000000c,0000000.000s, 027.0C,00002195
2020-05-04 10:17:22 r, 00.00m,0000564323Hz,0000000000c,0000000.000s, 028.0C,00002195
2020-05-04 10:27:22 r, 00.00m,0000564201Hz,0000000000c,0000000.000s, 027.7C,00002195
2020-05-04 10:37:22 r, 00.00m,0000564253Hz,0000000000c,0000000.000s, 027.3C,00002195
2020-05-04 10:47:22 r, 00.00m,0000564236Hz,0000000000c,0000000.000s, 027.7C,00002195
2020-05-04 10:57:22 r, 00.00m,0000564415Hz,0000000000c,0000000.000s, 028.6C,00002195
2020-05-04 11:07:22 r, 00.00m,0000564725Hz,0000000000c,0000000.000s, 031.2C,00002195
2020-05-04 11:17:22 r, 00.00m,0000565040Hz,0000000000c,0000000.000s, 033.5C,00002195
2020-05-04 11:27:24 r, 00.00m,0000565257Hz,0000000000c,0000000.000s, 036.0C,00002195
2020-05-04 11:37:22 r, 00.00m,0000565332Hz,0000000000c,0000000.000s, 037.0C,00002195
2020-05-04 11:47:22 r, 00.00m,0000565131Hz,0000000000c,0000000.000s, 036.0C,00002195
2020-05-04 11:57:22 r, 00.00m,0000565134Hz,0000000000c,0000000.000s, 036.0C,00002195
2020-05-04 12:07:22 r, 00.00m,0000565388Hz,0000000000c,0000000.000s, 037.7C,00002195
2020-05-04 12:17:22 r, 00.00m,0000565520Hz,0000000000c,0000000.000s, 039.6C,00002195
2020-05-04 12:27:22 r, 00.00m,0000565522Hz,0000000000c,0000000.000s, 039.9C,00002195
2020-05-04 12:37:22 r, 00.00m,0000565347Hz,0000000000c,0000000.000s, 039.0C,00002195
2020-05-04 12:47:22 r, 00.00m,0000565486Hz,0000000000c,0000000.000s, 039.6C,00002195
2020-05-04 12:57:22 r, 00.00m,0000565580Hz,0000000000c,0000000.000s, 041.2C,00002195
2020-05-04 13:07:22 r, 00.00m,0000565723Hz,0000000000c,0000000.000s, 042.5C,00002195
2020-05-04 13:17:22 r, 00.00m,0000565664Hz,0000000000c,0000000.000s, 042.5C,00002195
2020-05-04 13:27:22 r, 00.00m,0000565732Hz,0000000000c,0000000.000s, 042.8C,00002195
2020-05-04 13:37:22 r, 00.00m,0000565661Hz,0000000000c,0000000.000s, 042.5C,00002195
2020-05-04 13:47:22 r, 00.00m,0000565553Hz,0000000000c,0000000.000s, 042.2C,00002195
2020-05-04 13:57:22 r, 00.00m,0000565551Hz,0000000000c,0000000.000s, 041.9C,00002195
2020-05-04 14:07:22 r, 00.00m,0000565391Hz,0000000000c,0000000.000s, 041.2C,00002195
2020-05-04 14:17:22 r, 00.00m,0000565280Hz,0000000000c,0000000.000s, 039.3C,00002195
2020-05-04 14:27:22 r, 00.00m,0000565254Hz,0000000000c,0000000.000s, 039.6C,00002195
2020-05-04 14:37:22 r, 00.00m,0000565380Hz,0000000000c,0000000.000s, 040.6C,00002195
2020-05-04 14:47:22 r, 00.00m,0000565318Hz,0000000000c,0000000.000s, 040.2C,00002195
2020-05-04 14:57:22 r, 00.00m,0000565217Hz,0000000000c,0000000.000s, 039.6C,00002195
2020-05-04 15:07:22 r, 00.00m,0000565372Hz,0000000000c,0000000.000s, 039.9C,00002195
2020-05-04 15:17:22 r, 00.00m,0000565480Hz,0000000000c,0000000.000s, 041.5C,00002195
2020-05-04 15:27:22 r, 00.00m,0000565451Hz,0000000000c,0000000.000s, 041.5C,00002195
2020-05-04 15:37:22 r, 00.00m,0000565474Hz,0000000000c,0000000.000s, 041.2C,00002195
2020-05-04 15:47:22 r, 00.00m,0000565352Hz,0000000000c,0000000.000s, 040.9C,00002195
2020-05-04 15:57:22 r, 00.00m,0000565415Hz,0000000000c,0000000.000s, 040.9C,00002195
2020-05-04 16:07:22 r, 00.00m,0000565471Hz,0000000000c,0000000.000s, 041.9C,00002195
2020-05-04 16:17:23 r, 00.00m,0000565461Hz,0000000000c,0000000.000s, 042.5C,00002195
2020-05-04 16:27:23 r, 00.00m,0000565278Hz,0000000000c,0000000.000s, 040.2C,00002195
2020-05-04 16:37:22 r, 00.00m,0000565023Hz,0000000000c,0000000.000s, 038.0C,00002195
2020-05-04 16:47:22 r, 00.00m,0000564931Hz,0000000000c,0000000.000s, 037.3C,00002195
2020-05-04 16:57:22 r, 00.00m,0000564869Hz,0000000000c,0000000.000s, 036.4C,00002195
2020-05-04 17:07:22 r, 00.00m,0000564803Hz,0000000000c,0000000.000s, 035.4C,00002195
2020-05-04 17:17:22 r, 00.00m,0000564636Hz,0000000000c,0000000.000s, 034.8C,00002195
2020-05-04 17:27:22 r, 00.00m,0000564620Hz,0000000000c,0000000.000s, 033.8C,00002195
2020-05-04 17:37:22 r, 00.00m,0000564542Hz,0000000000c,0000000.000s, 033.5C,00002195
2020-05-04 17:47:22 r, 00.00m,0000564520Hz,0000000000c,0000000.000s, 032.8C,00002195
2020-05-04 17:57:22 r, 00.00m,0000564473Hz,0000000000c,0000000.000s, 032.5C,00002195
2020-05-04 18:07:22 r, 00.00m,0000564364Hz,0000000000c,0000000.000s, 031.9C,00002195
2020-05-04 18:17:22 r, 00.00m,0000564327Hz,0000000000c,0000000.000s, 031.2C,00002195
2020-05-04 18:27:22 r, 00.00m,0000564348Hz,0000000000c,0000000.000s, 031.2C,00002195
2020-05-04 18:37:22 r, 00.00m,0000564282Hz,0000000000c,0000000.000s, 031.2C,00002195
2020-05-04 18:47:22 r, 00.00m,0000564237Hz,0000000000c,0000000.000s, 030.9C,00002195
2020-05-04 18:57:22 r, 00.00m,0000564297Hz,0000000000c,0000000.000s, 030.9C,00002195
2020-05-04 19:07:22 r, 00.00m,0000564227Hz,0000000000c,0000000.000s, 030.6C,00002195
2020-05-04 19:17:22 r, 00.00m,0000564241Hz,0000000000c,0000000.000s, 030.2C,00002195
2020-05-04 19:27:22 r, 00.00m,0000564196Hz,0000000000c,0000000.000s, 030.2C,00002195
2020-05-04 19:37:22 r, 00.00m,0000564188Hz,0000000000c,0000000.000s, 029.9C,00002195
2020-05-04 19:47:22 r, 00.00m,0000564077Hz,0000000000c,0000000.000s, 029.6C,00002195
2020-05-04 19:57:22 r, 00.00m,0000564090Hz,0000000000c,0000000.000s, 029.3C,00002195
2020-05-04 20:07:22 r, 00.00m,0000564099Hz,0000000000c,0000000.000s, 029.0C,00002195
2020-05-04 20:17:22 r, 05.92m,0000379036Hz,0000000000c,0000000.000s, 028.6C,00002195
2020-05-04 20:27:22 r, 06.40m,0000243956Hz,0000000000c,0000000.000s, 028.3C,00002195
2020-05-04 20:37:22 r, 06.96m,0000147047Hz,0000000000c,0000000.000s, 028.0C,00002195
2020-05-04 20:47:22 r, 07.75m,0000071021Hz,0000000000c,0000000.000s, 028.0C,00002195
2020-05-04 20:57:22 r, 08.74m,0000028299Hz,0000000000c,0000000.000s, 027.7C,00002195
2020-05-04 21:07:22 r, 10.09m,0000008216Hz,0000000000c,0000000.000s, 027.7C,00002195
2020-05-04 21:17:22 r, 11.63m,0000001990Hz,0000000000c,0000000.000s, 027.7C,00002195
2020-05-04 21:27:22 r, 13.20m,0000000467Hz,0000000000c,0000000.000s, 027.3C,00002195
2020-05-04 21:37:22 r, 14.62m,0000000126Hz,0000003660c,0000000.008s, 027.3C,00002195
2020-05-04 21:47:22 r, 15.53m,0000000054Hz,0000008514c,0000000.018s, 027.3C,00002195
2020-05-04 21:57:22 r, 15.97m,0000000036Hz,0000012704c,0000000.028s, 027.0C,00002195
2020-05-04 22:07:22 r, 16.21m,0000000029Hz,0000015864c,0000000.034s, 027.0C,00002195
2020-05-04 22:17:22 r, 16.14m,0000000031Hz,0000014906c,0000000.032s, 027.0C,00002195
2020-05-04 22:27:22 r, 15.93m,0000000038Hz,0000012206c,0000000.026s, 026.7C,00002195
2020-05-04 22:37:22 r, 15.96m,0000000036Hz,0000012567c,0000000.027s, 026.7C,00002195
2020-05-04 22:47:22 r, 16.02m,0000000035Hz,0000013275c,0000000.029s, 026.7C,00002195
2020-05-04 22:57:22 r, 16.02m,0000000035Hz,0000013266c,0000000.029s, 026.4C,00002195
2020-05-04 23:07:22 r, 16.08m,0000000033Hz,0000014124c,0000000.031s, 026.1C,00002195
2020-05-04 23:17:22 r, 16.12m,0000000032Hz,0000014642c,0000000.032s, 026.1C,00002195
2020-05-04 23:27:22 r, 16.18m,0000000030Hz,0000015425c,0000000.033s, 025.7C,00002195
2020-05-04 23:37:22 r, 15.85m,0000000041Hz,0000011390c,0000000.025s, 025.7C,00002195
2020-05-04 23:47:22 r, 15.80m,0000000042Hz,0000010884c,0000000.024s, 025.7C,00002195
2020-05-04 23:57:22 r, 15.98m,0000000035Hz,0000012916c,0000000.028s, 025.4C,00002195
